Weather History for KMPZ - December, 2013

Change the Weather History Date:

Wednesday, December 4, 2013

  Actual Average Record
Temperature  
Mean Temperature 42 °F -  
Max Temperature 56 °F 37 °F 64 °F (1960)
Min Temperature 27 °F 21 °F 0 °F (1991)
Degree Days  
Heating Degree Days 24    
Moisture  
Dew Point 40 °F    
Average Humidity 88    
Maximum Humidity 97    
Minimum Humidity 73    
Precipitation  
Precipitation 0.00 in - - ()
Sea Level Pressure  
Sea Level Pressure 29.63 in    
Wind  
Wind Speed 10 mph (South)    
Max Wind Speed 23 mph    
Max Gust Speed 30 mph    
Visibility 5 miles    
Events Fog    
Averages and records for this station are not official NWS values.
T = Trace of Precipitation, MM = Missing Value Source: NWS Daily Summary

Daily Weather History Graph

Daily Weather History Graph

Search for Another Location

Airport or City:

Trip Planner

Search our weather history database for the weather conditions in past years. The results will help you decide how hot, cold, wet, or windy it might be!

Date:

Astronomy

Dec. 04, 2013 Rise Set
Actual Time 7:14 AM CST 4:38 PM CST
Civil Twilight 6:43 AM CST 5:08 PM CST
Nautical Twilight 6:09 AM CST 5:42 PM CST
Astronomical Twilight 5:36 AM CST 6:16 PM CST
Moon 8:42 AM CST (12/4) 6:49 PM CST (12/4)
Length of Visible Light 10h 24m
Length of Day
9h 23m
Waxing Crescent, 4% of the Moon is Illuminated
Dec 4
Waxing Crescent
Dec 9
First Quarter
Dec 17
Full
Dec 25
Last Quarter
Jan 1
New

Hourly Weather History & Observations

Time (CST) Temp. Windchill Dew Point Humidity Pressure Visibility Wind Dir Wind Speed Gust Speed Precip Events Conditions
12:15 AM 44.6 °F 40.2 °F 43.5 °F 96% 29.65 in 1.2 mi SSE 8.1 mph - N/A   Overcast
12:35 AM 44.6 °F 41.4 °F 43.5 °F 96% 29.65 in 1.2 mi SSE 5.8 mph - N/A   Overcast
12:55 AM 44.8 °F 41.0 °F 43.7 °F 96% 29.65 in 1.5 mi SE 6.9 mph - N/A   Overcast
1:15 AM 44.1 °F 40.1 °F 43.0 °F 96% 29.65 in 1.5 mi SE 6.9 mph - N/A   Mostly Cloudy
1:35 AM 43.7 °F 40.3 °F 42.8 °F 97% 29.64 in 1.5 mi SSE 5.8 mph - N/A   Mist
1:55 AM 43.2 °F 38.4 °F 42.1 °F 96% 29.64 in 1.5 mi SSE 8.1 mph - N/A   Mist
2:15 AM 43.7 °F 39.1 °F 42.4 °F 95% 29.64 in 1.8 mi SSE 8.1 mph - N/A   Mist
2:35 AM 43.5 °F 39.4 °F 42.4 °F 96% 29.63 in 1.5 mi SSE 6.9 mph - N/A   Mist
2:55 AM 43.0 °F 39.5 °F 41.9 °F 96% 29.63 in 1.0 mi SE 5.8 mph - N/A   Mist
3:15 AM 42.8 °F 38.6 °F 41.7 °F 96% 29.62 in 0.8 mi SSE 6.9 mph - N/A   Mist
3:35 AM 44.1 °F 39.0 °F 43.0 °F 96% 29.62 in 1.2 mi SSE 9.2 mph - N/A   Overcast
3:55 AM 45.3 °F 41.1 °F 44.2 °F 96% 29.61 in 0.5 mi SSE 8.1 mph - N/A Fog Fog
4:15 AM 45.1 °F 40.3 °F 44.1 °F 96% 29.61 in 0.2 mi SSE 9.2 mph - N/A Fog Fog
4:35 AM 45.5 °F 40.8 °F 44.6 °F 97% 29.61 in 0.2 mi South 9.2 mph - N/A Fog Fog
4:55 AM 45.9 °F 42.9 °F 44.8 °F 96% 29.61 in 0.2 mi SSE 5.8 mph - N/A Fog Fog
5:15 AM 45.7 °F 42.7 °F 44.6 °F 96% 29.61 in 0.2 mi SE 5.8 mph - N/A Fog Fog
5:35 AM 45.7 °F 44.4 °F 44.6 °F 96% 29.61 in 0.2 mi SE 3.5 mph - N/A Fog Fog
5:55 AM 45.9 °F 44.6 °F 44.8 °F 96% 29.60 in 0.2 mi ESE 3.5 mph - N/A Fog Fog
6:15 AM 46.4 °F 42.9 °F 45.5 °F 97% 29.60 in 0.2 mi SE 6.9 mph - N/A Fog Fog
6:35 AM 46.9 °F - 45.9 °F 96% 29.61 in 0.2 mi SSE 6.9 mph - N/A Fog Fog
6:55 AM 47.3 °F - 46.2 °F 96% 29.61 in 0.2 mi SSE 6.9 mph - N/A Fog Fog
7:15 AM 47.3 °F - 46.4 °F 97% 29.60 in 0.2 mi SE 6.9 mph - N/A Fog Fog
7:35 AM 47.7 °F - 46.8 °F 97% 29.60 in 0.2 mi SE 6.9 mph - N/A Fog Fog
7:55 AM 47.7 °F - 46.8 °F 97% 29.60 in 0.2 mi SE 6.9 mph - N/A Fog Fog
8:15 AM 48.0 °F - 46.9 °F 96% 29.60 in 0.2 mi SE 6.9 mph - N/A Fog Fog
8:35 AM 48.2 °F - 46.9 °F 95% 29.61 in 0.2 mi SE 5.8 mph - N/A Fog Fog
8:55 AM 48.6 °F - 47.7 °F 97% 29.59 in 0.8 mi ESE 8.1 mph - N/A   Overcast
9:15 AM 49.6 °F - 48.7 °F 97% 29.57 in 1.2 mi ESE 10.4 mph - N/A   Overcast
9:35 AM 50.2 °F - 49.3 °F 97% 29.56 in 1.2 mi ESE 10.4 mph - N/A   Overcast
9:55 AM 50.4 °F - 49.5 °F 97% 29.56 in 1.5 mi SE 9.2 mph - N/A   Overcast
10:15 AM 51.3 °F - 50.2 °F 96% 29.57 in 1.8 mi SSE 11.5 mph - N/A   Overcast
10:35 AM 51.4 °F - 50.4 °F 96% 29.56 in 1.5 mi SSE 9.2 mph - N/A   Overcast
10:55 AM 51.8 °F - 50.5 °F 95% 29.56 in 1.5 mi SSE 10.4 mph - N/A   Overcast
11:15 AM 51.8 °F - 50.9 °F 97% 29.54 in 2.0 mi SSE 8.1 mph - N/A   Overcast
11:35 AM 52.7 °F - 51.3 °F 95% 29.53 in 2.5 mi South 6.9 mph - N/A   Overcast
11:55 AM 53.6 °F - 50.9 °F 91% 29.52 in 4.0 mi South 8.1 mph - N/A   Overcast
12:15 PM 54.1 °F - 51.1 °F 89% 29.51 in 4.0 mi South 9.2 mph - N/A   Overcast
12:35 PM 54.5 °F - 50.2 °F 85% 29.50 in 5.0 mi South 9.2 mph - N/A   Haze
12:55 PM 55.4 °F - 50.5 °F 84% 29.50 in 5.0 mi South 10.4 mph - N/A   Overcast
1:15 PM 55.6 °F - 50.5 °F 83% 29.48 in 5.0 mi South 10.4 mph - N/A   Haze
1:35 PM 55.8 °F - 49.6 °F 80% 29.48 in 7.0 mi South 12.7 mph - N/A   Overcast
1:55 PM 56.7 °F - 48.4 °F 74% 29.48 in 7.0 mi SSW 15.0 mph - N/A   Overcast
2:15 PM 56.5 °F - 48.2 °F 74% 29.48 in 10.0 mi South 12.7 mph - N/A   Overcast
2:35 PM 56.3 °F - 47.7 °F 73% 29.48 in 10.0 mi SSW 13.8 mph 18.4 mph N/A   Overcast
2:55 PM 55.9 °F - 47.5 °F 73% 29.49 in 10.0 mi SSW 12.7 mph - N/A   Overcast
3:15 PM 55.8 °F - 47.5 °F 74% 29.50 in 10.0 mi SW 16.1 mph - N/A   Overcast
3:35 PM 55.4 °F - 47.8 °F 76% 29.51 in 10.0 mi SW 20.7 mph 26.5 mph N/A   Overcast
3:55 PM 46.4 °F 39.0 °F 43.7 °F 90% 29.55 in 4.0 mi West 19.6 mph 28.8 mph N/A   Light Drizzle
4:15 PM 43.5 °F 34.5 °F 41.4 °F 92% 29.57 in 3.0 mi West 23.0 mph 29.9 mph N/A   Overcast
4:35 PM 41.5 °F 33.2 °F 39.7 °F 93% 29.60 in 4.0 mi West 17.3 mph 26.5 mph N/A   Overcast
4:55 PM 40.3 °F 32.6 °F 37.9 °F 91% 29.61 in 7.0 mi West 13.8 mph 26.5 mph N/A   Overcast
5:15 PM 39.4 °F 30.4 °F 36.5 °F 89% 29.63 in 10.0 mi WNW 17.3 mph 28.8 mph N/A   Overcast
5:35 PM 36.5 °F 27.4 °F 33.8 °F 90% 29.65 in 10.0 mi WNW 15.0 mph 24.2 mph N/A   Overcast
5:55 PM 36.1 °F 27.3 °F 33.8 °F 91% 29.67 in 10.0 mi West 13.8 mph 17.3 mph N/A   Overcast
6:15 PM 36.1 °F 27.3 °F 32.0 °F 85% 29.68 in 10.0 mi West 13.8 mph - N/A   Overcast
6:35 PM 35.4 °F 26.4 °F 30.0 °F 81% 29.68 in 10.0 mi West 13.8 mph 24.2 mph N/A   Overcast
6:55 PM 35.1 °F 26.4 °F 30.4 °F 83% 29.70 in 10.0 mi WSW 12.7 mph - N/A   Overcast
7:15 PM 34.7 °F 25.1 °F 29.3 °F 81% 29.70 in 10.0 mi West 15.0 mph 21.9 mph N/A   Overcast
7:35 PM 34.3 °F 25.0 °F 29.3 °F 82% 29.73 in 10.0 mi West 13.8 mph - N/A   Overcast
7:55 PM 33.4 °F 21.4 °F 28.0 °F 81% 29.74 in 10.0 mi West 21.9 mph 25.3 mph N/A   Overcast
8:15 PM 32.4 °F 20.9 °F 27.0 °F 80% 29.75 in 10.0 mi West 18.4 mph 27.6 mph N/A   Overcast
8:35 PM 31.5 °F 19.8 °F 25.3 °F 78% 29.76 in 10.0 mi West 18.4 mph 27.6 mph N/A   Overcast
8:55 PM 30.7 °F 19.2 °F 24.6 °F 78% 29.77 in 10.0 mi West 17.3 mph 28.8 mph N/A   Overcast
9:15 PM 30.2 °F 18.9 °F 23.9 °F 77% 29.79 in 10.0 mi West 16.1 mph 24.2 mph N/A   Overcast
9:35 PM 30.2 °F 18.5 °F 23.9 °F 77% 29.80 in 10.0 mi West 17.3 mph 26.5 mph N/A   Overcast
9:55 PM 29.5 °F 18.0 °F 23.4 °F 78% 29.82 in 10.0 mi West 16.1 mph 23.0 mph N/A   Overcast
10:15 PM 28.8 °F 18.4 °F 22.5 °F 77% 29.81 in 10.0 mi West 12.7 mph 24.2 mph N/A   Overcast
10:35 PM 28.2 °F 18.3 °F 21.9 °F 77% 29.83 in 10.0 mi West 11.5 mph 20.7 mph N/A   Overcast
10:55 PM 27.9 °F 15.5 °F 21.2 °F 76% 29.84 in 10.0 mi West 17.3 mph 20.7 mph N/A   Overcast
11:15 PM 27.1 °F 14.9 °F 19.6 °F 73% 29.85 in 10.0 mi West 16.1 mph 24.2 mph N/A   Mostly Cloudy
11:35 PM 27.0 °F 15.6 °F 19.8 °F 74% 29.87 in 10.0 mi West 13.8 mph 18.4 mph N/A   Mostly Cloudy
11:55 PM 27.0 °F 17.3 °F 19.8 °F 74% 29.87 in 10.0 mi West 10.4 mph 17.3 mph N/A   Overcast